2023/02/26 00:00:00, 1.8,-0.1
2023/02/26 00:10:00, 1.9,-0.1
2023/02/26 00:20:00, 2.0,-0.4
2023/02/26 00:30:00, 2.4,-0.1
2023/02/26 00:40:00, 3.1,-0.5
2023/02/26 00:50:00, 3.3,-0.4
2023/02/26 01:00:00, 3.4,-0.6
2023/02/26 01:10:00, 3.4,-0.6
2023/02/26 01:20:00, 3.4,-0.6
2023/02/26 01:30:00, 3.4,-0.7
2023/02/26 01:40:00, 3.4,-0.6
2023/02/26 01:50:00, 3.3,-0.4
2023/02/26 02:00:00, 3.3,-0.4
2023/02/26 02:10:00, 3.3,-0.3
2023/02/26 02:20:00, 3.2,-0.5
2023/02/26 02:30:00, 3.2,-0.4
2023/02/26 02:40:00, 3.2,-0.7
2023/02/26 02:50:00, 3.2,-0.5
2023/02/26 03:00:00, 3.2,-0.4
2023/02/26 03:10:00, 3.2,-0.5
2023/02/26 03:20:00, 3.2,-0.4
2023/02/26 03:30:00, 3.2,-0.2
2023/02/26 03:40:00, 3.2,-0.4
2023/02/26 03:50:00, 3.2,-0.5
2023/02/26 04:00:00, 3.2,-0.7
2023/02/26 04:10:00, 3.2,-0.6
2023/02/26 04:20:00, 3.2,-0.4
2023/02/26 04:30:00, 3.2,-0.9
2023/02/26 04:40:00, 3.2,-0.5
2023/02/26 04:50:00, 3.2,-0.4
2023/02/26 05:00:00, 3.2,-0.8
2023/02/26 05:10:00, 3.2,-0.7
2023/02/26 05:20:00, 3.2,-0.6
2023/02/26 05:30:00, 3.2,-0.7
2023/02/26 05:40:00, 3.2,-0.7
2023/02/26 05:50:00, 3.1,-0.6
2023/02/26 06:00:00, 3.2,-0.6
2023/02/26 06:10:00, 3.2,-0.9
2023/02/26 06:20:00, 3.2,-1.3
2023/02/26 06:30:00, 3.1,-1.4
2023/02/26 06:40:00, 3.1,-1.2
2023/02/26 06:50:00, 3.1,-1.3
2023/02/26 07:00:00, 3.1,-1.2
2023/02/26 07:10:00, 3.1,-0.8
2023/02/26 07:20:00, 3.1,-0.8
2023/02/26 07:30:00, 3.1,-0.8
2023/02/26 07:40:00, 3.0,-0.4
2023/02/26 07:50:00, 3.0, 0.0
2023/02/26 08:00:00, 3.1, 0.0
2023/02/26 08:10:00, 3.1, 0.0
2023/02/26 08:20:00, 3.1, 0.0
2023/02/26 08:30:00, 3.1, 0.5
2023/02/26 08:40:00, 3.0, 1.0
2023/02/26 08:50:00, 3.0, 1.2
2023/02/26 09:00:00, 3.0, 0.9
2023/02/26 09:10:00, 2.9, 2.5
2023/02/26 09:20:00, 2.9, 2.4
2023/02/26 09:30:00, 2.8, 1.7
2023/02/26 09:40:00, 2.9, 1.8
2023/02/26 09:50:00, 2.8, 2.7
2023/02/26 10:00:00, 2.7, 6.2
2023/02/26 10:10:00, 2.6, 4.8
2023/02/26 10:20:00, 2.6, 6.7
2023/02/26 10:30:00, 2.4, 6.6
2023/02/26 10:40:00, 1.8, 5.1
2023/02/26 10:50:00, 1.2, 4.6
2023/02/26 11:00:00, 0.9, 4.3
2023/02/26 11:10:00, 0.8, 5.3
2023/02/26 11:20:00, 0.7, 6.6
2023/02/26 11:30:00, 0.4, 4.6
2023/02/26 11:40:00, 0.4, 4.0
2023/02/26 11:50:00, 0.3, 5.5
2023/02/26 12:00:00, 0.1, 5.2
2023/02/26 12:10:00, 0.0, 8.3
2023/02/26 12:20:00, 0.0, 5.7
2023/02/26 12:30:00, 0.0, 4.7
2023/02/26 12:40:00, 0.0, 5.4
2023/02/26 12:50:00, 0.0, 6.5
2023/02/26 13:00:00, 0.0, 5.0
2023/02/26 13:10:00, 0.0, 4.7
2023/02/26 13:20:00, 0.0, 5.5
2023/02/26 13:30:00, 0.0, 5.8
2023/02/26 13:40:00, 0.0, 5.8
2023/02/26 13:50:00, 0.0, 5.1
2023/02/26 14:00:00, 0.0, 5.2
2023/02/26 14:10:00, 0.0, 6.5
2023/02/26 14:20:00, 0.0, 6.3
2023/02/26 14:30:00, 0.0, 7.8
2023/02/26 14:40:00, 0.0, 7.0
2023/02/26 14:50:00, 0.0, 8.4
2023/02/26 15:00:00, 0.0, 7.7
2023/02/26 15:10:00, 0.0, 7.7
2023/02/26 15:20:00, 0.0, 9.5
2023/02/26 15:30:00, 0.0,10.1
2023/02/26 15:40:00, 0.0, 9.0
2023/02/26 15:50:00, 0.0, 8.1
2023/02/26 16:00:00, 0.0, 6.1
2023/02/26 16:10:00, 0.0, 5.4
2023/02/26 16:20:00, 0.0, 5.6
2023/02/26 16:30:00, 0.0, 5.1
2023/02/26 16:40:00, 0.0, 5.0
2023/02/26 16:50:00, 0.0, 4.7
2023/02/26 17:00:00, 0.0, 4.4
2023/02/26 17:10:00, 0.0, 4.0
2023/02/26 17:20:00, 0.0, 3.7
2023/02/26 17:30:00, 0.0, 2.4
2023/02/26 17:40:00, 0.0, 2.0
2023/02/26 17:50:00, 0.0, 1.9
2023/02/26 18:00:00, 0.0, 1.9
2023/02/26 18:10:00, 0.0, 1.5
2023/02/26 18:20:00, 0.0, 1.2
2023/02/26 18:30:00, 0.0, 0.9
2023/02/26 18:40:00, 0.0, 0.6
2023/02/26 18:50:00, 0.0, 0.1
2023/02/26 19:00:00, 0.0, 0.1
2023/02/26 19:10:00, 0.0,-0.7
2023/02/26 19:20:00, 0.0,-0.4
2023/02/26 19:30:00, 0.0,-0.7
2023/02/26 19:40:00, 0.0,-0.5
2023/02/26 19:50:00, 0.0,-0.6
2023/02/26 20:00:00, 0.0,-0.7
2023/02/26 20:10:00, 0.0,-0.5
2023/02/26 20:20:00, 0.0,-0.6
2023/02/26 20:30:00, 0.0,-0.5
2023/02/26 20:40:00, 0.0,-0.3
2023/02/26 20:50:00, 0.0,-0.2
2023/02/26 21:00:00, 0.0, 0.1
2023/02/26 21:10:00, 0.0, 0.1
2023/02/26 21:20:00, 0.0, 0.4
2023/02/26 21:30:00, 0.0, 0.2
2023/02/26 21:40:00, 0.0, 0.2
2023/02/26 21:50:00, 0.0, 0.1
2023/02/26 22:00:00, 0.0,-0.3
2023/02/26 22:10:00, 0.0,-0.5
2023/02/26 22:20:00, 0.0,-0.7
2023/02/26 22:30:00, 0.0,-0.8
2023/02/26 22:40:00, 0.0,-0.9
2023/02/26 22:50:00, 0.0,-1.0
2023/02/26 23:00:00, 0.0,-1.1
2023/02/26 23:10:00, 0.0,-1.2
2023/02/26 23:20:00, 0.0,-1.5
2023/02/26 23:30:00, 0.0,-1.6
2023/02/26 23:40:00, 0.0,-1.6
2023/02/26 23:50:00, 0.0,-1.9
